Location: Tamazert
(32.6352°N, 5.2072°W)
Time: 17:22:22
(UTC+00:00)

Cosmos 2278 Rocket - Pass Details

Date: 22 May 2022
Orbit: 840 x 846 km, 71.0° (Epoch: 06 July)

Event Time Altitude Azimuth Distance (km) Brightness Sun altitude
Rises 02:37:21 0° 335° (NNW) 3,409 5.7 -27.3°
Reaches altitude 10° 02:39:50 10° 332° (NNW) 2,470 4.9 -27.0°
Enters shadow 02:44:42 57° 288° (WNW) 987 2.3 -26.4°
